When you browse on this site, cookies collect data to enhance your experience and personalize the content and advertising you see.
Visit our Privacy Policy to learn more. By continuing to use the site, you agree to this use of cookies and data.
  • In Deutschland
  • Länderverzeichnis
  • Für 7 Tage
  • Wassertemperatur
  • Satellitenkarten
  • Wetterkarte
  • Widgets
  • user-avatar
    Anmelden

    Stündliche Wetter Newcastle

    Heute, 20 März, Mittwoch

    Zeit Temperatur Niederschläge Wind Luftdruck Luftfeuchtigkeit
    00:00 +19°C° 0 mm 2 m/S 759 mmHg 95%
    01:00 +18°C° 0 mm 2 m/S 759 mmHg 96%
    02:00 +18°C° 0 mm 2 m/S 758 mmHg 96%
    03:00 +18°C° 0 mm 3 m/S 758 mmHg 97%
    04:00 +18°C° 0 mm 2 m/S 758 mmHg 98%
    05:00 +19°C° 0 mm 2 m/S 759 mmHg 97%
    06:00 +19°C° 0 mm 2 m/S 759 mmHg 96%
    07:00 +19°C° 0 mm 3 m/S 759 mmHg 95%
    08:00 +22°C° 0 mm 3 m/S 759 mmHg 84%
    09:00 +25°C° 0 mm 3 m/S 759 mmHg 74%
    10:00 +27°C° 0 mm 3 m/S 760 mmHg 65%
    11:00 +27°C° 0.2 mm 3 m/S 759 mmHg 65%
    12:00 +28°C° 0.2 mm 3 m/S 759 mmHg 66%
    13:00 +28°C° 0.2 mm 4 m/S 758 mmHg 66%
    14:00 +27°C° 0.4 mm 3 m/S 758 mmHg 69%
    15:00 +27°C° 0.4 mm 3 m/S 758 mmHg 73%
    16:00 +26°C° 0 mm 3 m/S 759 mmHg 77%
    17:00 +24°C° 0.3 mm 3 m/S 759 mmHg 83%
    18:00 +23°C° 0.3 mm 2 m/S 759 mmHg 90%
    19:00 +21°C° 0.3 mm 2 m/S 759 mmHg 96%
    20:00 +20°C° 0 mm 2 m/S 760 mmHg 97%
    21:00 +20°C° 0 mm 2 m/S 760 mmHg 97%
    22:00 +21°C° 0 mm 1 m/S 760 mmHg 98%
    23:00 +21°C° 0.1 mm 1 m/S 760 mmHg 98%

    Morgen, 21 März, Donnerstag

    Zeit Temperatur Niederschläge Wind Luftdruck Luftfeuchtigkeit
    00:00 +20°C° 0.1 mm 2 m/S 760 mmHg 98%
    01:00 +19°C° 0.1 mm 2 m/S 760 mmHg 98%
    02:00 +19°C° 0 mm 2 m/S 759 mmHg 98%
    03:00 +19°C° 0 mm 3 m/S 759 mmHg 99%
    04:00 +19°C° 0 mm 3 m/S 759 mmHg 99%
    05:00 +19°C° 0 mm 3 m/S 760 mmHg 98%
    06:00 +19°C° 0 mm 3 m/S 760 mmHg 98%
    07:00 +20°C° 0 mm 3 m/S 760 mmHg 97%
    08:00 +21°C° 0 mm 3 m/S 760 mmHg 90%
    09:00 +24°C° 0 mm 3 m/S 760 mmHg 83%
    10:00 +26°C° 0 mm 3 m/S 760 mmHg 76%
    11:00 +27°C° 0.1 mm 3 m/S 760 mmHg 72%
    12:00 +28°C° 0.1 mm 4 m/S 760 mmHg 67%
    13:00 +29°C° 0.1 mm 4 m/S 760 mmHg 63%
    14:00 +28°C° 0.2 mm 4 m/S 760 mmHg 65%
    15:00 +28°C° 0.2 mm 4 m/S 759 mmHg 67%
    16:00 +27°C° 0.2 mm 4 m/S 759 mmHg 68%
    17:00 +26°C° 0 mm 3 m/S 760 mmHg 76%
    18:00 +24°C° 0 mm 3 m/S 760 mmHg 83%
    19:00 +23°C° 0 mm 2 m/S 761 mmHg 91%
    20:00 +21°C° 0.5 mm 2 m/S 761 mmHg 92%
    21:00 +21°C° 0.5 mm 2 m/S 761 mmHg 94%
    22:00 +21°C° 0.5 mm 2 m/S 762 mmHg 95%
    23:00 +20°C° 0.1 mm 2 m/S 761 mmHg 96%

    übermorgen, 22 März, Freitag

    Zeit Temperatur Niederschläge Wind Luftdruck Luftfeuchtigkeit
    00:00 +20°C° 0.1 mm 2 m/S 761 mmHg 97%
    01:00 +20°C° 0.1 mm 2 m/S 761 mmHg 97%
    02:00 +20°C° 0 mm 2 m/S 761 mmHg 98%
    03:00 +20°C° 0 mm 2 m/S 761 mmHg 98%
    04:00 +20°C° 0 mm 2 m/S 761 mmHg 98%
    05:00 +20°C° 0 mm 2 m/S 761 mmHg 97%
    06:00 +21°C° 0 mm 2 m/S 762 mmHg 95%
    07:00 +21°C° 0 mm 2 m/S 762 mmHg 94%
    08:00 +24°C° 0.1 mm 2 m/S 762 mmHg 85%
    09:00 +26°C° 0.1 mm 2 m/S 762 mmHg 76%
    10:00 +28°C° 0.1 mm 2 m/S 762 mmHg 67%
    11:00 +28°C° 0 mm 3 m/S 762 mmHg 65%
    12:00 +29°C° 0 mm 3 m/S 761 mmHg 63%
    13:00 +29°C° 0 mm 3 m/S 761 mmHg 61%
    14:00 +28°C° 0 mm 3 m/S 760 mmHg 62%
    15:00 +28°C° 0 mm 3 m/S 760 mmHg 64%
    16:00 +27°C° 0 mm 3 m/S 760 mmHg 65%
    17:00 +26°C° 0 mm 2 m/S 760 mmHg 73%
    18:00 +24°C° 0 mm 2 m/S 760 mmHg 81%
    19:00 +22°C° 0 mm 1 m/S 761 mmHg 89%
    20:00 +22°C° 0 mm 1 m/S 761 mmHg 90%
    21:00 +20°C° 0 mm 0 m/S 761 mmHg 91%
    22:00 +20°C° 0 mm 0 m/S 762 mmHg 92%
    23:00 +19°C° 0 mm 0 m/S 761 mmHg 94%

    23 März, Samstag

    Zeit Temperatur Niederschläge Wind Luftdruck Luftfeuchtigkeit
    00:00 +19°C° 0 mm 0 m/S 761 mmHg 95%
    01:00 +20°C° 0 mm 1 m/S 761 mmHg 97%
    02:00 +20°C° 0 mm 1 m/S 760 mmHg 97%
    03:00 +20°C° 0 mm 1 m/S 760 mmHg 97%
    04:00 +20°C° 0 mm 1 m/S 760 mmHg 98%
    05:00 +20°C° 0 mm 1 m/S 760 mmHg 96%
    06:00 +21°C° 0 mm 1 m/S 760 mmHg 94%
    07:00 +21°C° 0 mm 1 m/S 761 mmHg 92%
    08:00 +24°C° 0 mm 1 m/S 760 mmHg 81%
    09:00 +26°C° 0 mm 1 m/S 760 mmHg 69%
    10:00 +29°C° 0 mm 1 m/S 760 mmHg 58%
    11:00 +30°C° 0 mm 2 m/S 759 mmHg 53%
    12:00 +32°C° 0 mm 2 m/S 759 mmHg 48%
    13:00 +34°C° 0 mm 2 m/S 758 mmHg 43%
    14:00 +34°C° 0 mm 3 m/S 758 mmHg 46%
    15:00 +33°C° 0 mm 3 m/S 758 mmHg 48%
    16:00 +33°C° 0 mm 4 m/S 757 mmHg 50%
    17:00 +30°C° 0 mm 4 m/S 758 mmHg 60%
    18:00 +28°C° 0 mm 4 m/S 758 mmHg 71%
    19:00 +26°C° 0 mm 5 m/S 758 mmHg 81%
    20:00 +25°C° 0 mm 4 m/S 759 mmHg 83%
    21:00 +25°C° 0 mm 4 m/S 759 mmHg 86%
    22:00 +23°C° 0 mm 4 m/S 759 mmHg 88%
    23:00 +23°C° 0 mm 4 m/S 759 mmHg 87%

    24 März, Sonntag

    Zeit Temperatur Niederschläge Wind Luftdruck Luftfeuchtigkeit
    00:00 +23°C° 0 mm 4 m/S 758 mmHg 85%
    01:00 +23°C° 0 mm 4 m/S 758 mmHg 84%
    02:00 +24°C° 0 mm 3 m/S 758 mmHg 80%
    03:00 +24°C° 0 mm 3 m/S 757 mmHg 77%
    04:00 +24°C° 0 mm 2 m/S 757 mmHg 73%
    05:00 +24°C° 0 mm 2 m/S 757 mmHg 70%
    06:00 +25°C° 0 mm 2 m/S 758 mmHg 67%
    07:00 +25°C° 0 mm 2 m/S 758 mmHg 65%
    08:00 +28°C° 0 mm 2 m/S 758 mmHg 55%
    09:00 +31°C° 0 mm 1 m/S 758 mmHg 45%
    10:00 +34°C° 0 mm 1 m/S 758 mmHg 35%
    11:00 +36°C° 0 mm 1 m/S 758 mmHg 32%
    12:00 +38°C° 0 mm 2 m/S 757 mmHg 29%
    13:00 +40°C° 0 mm 2 m/S 757 mmHg 26%
    14:00 +39°C° 0 mm 3 m/S 756 mmHg 29%
    15:00 +38°C° 0 mm 4 m/S 756 mmHg 33%
    16:00 +37°C° 0 mm 4 m/S 755 mmHg 36%
    17:00 +35°C° 0 mm 4 m/S 756 mmHg 45%
    18:00 +31°C° 0 mm 3 m/S 756 mmHg 55%
    19:00 +28°C° 0 mm 3 m/S 757 mmHg 65%
    20:00 +28°C° 0 mm 3 m/S 757 mmHg 63%
    21:00 +28°C° 0 mm 3 m/S 757 mmHg 61%
    22:00 +28°C° 0 mm 3 m/S 757 mmHg 60%
    23:00 +27°C° 0 mm 3 m/S 757 mmHg 65%

    25 März, Montag

    Zeit Temperatur Niederschläge Wind Luftdruck Luftfeuchtigkeit
    00:00 +26°C° 0 mm 2 m/S 756 mmHg 70%
    01:00 +25°C° 0 mm 2 m/S 756 mmHg 76%
    02:00 +25°C° 0 mm 2 m/S 756 mmHg 71%
    03:00 +26°C° 0 mm 2 m/S 756 mmHg 66%
    04:00 +27°C° 0 mm 2 m/S 756 mmHg 61%
    05:00 +26°C° 0.7 mm 2 m/S 756 mmHg 69%
    06:00 +25°C° 0.7 mm 2 m/S 757 mmHg 78%
    07:00 +24°C° 0.7 mm 2 m/S 757 mmHg 87%
    08:00 +26°C° 0.6 mm 2 m/S 757 mmHg 81%
    09:00 +27°C° 0.6 mm 2 m/S 757 mmHg 76%
    10:00 +29°C° 0.6 mm 2 m/S 757 mmHg 70%
    11:00 +33°C° 0 mm 3 m/S 756 mmHg 58%
    12:00 +36°C° 0 mm 3 m/S 756 mmHg 45%
    13:00 +39°C° 0 mm 3 m/S 755 mmHg 33%
    14:00 +36°C° 0 mm 3 m/S 755 mmHg 40%
    15:00 +34°C° 0 mm 3 m/S 755 mmHg 47%
    16:00 +30°C° 0 mm 3 m/S 755 mmHg 55%
    17:00 +29°C° 0.2 mm 3 m/S 756 mmHg 60%
    18:00 +28°C° 0.2 mm 3 m/S 756 mmHg 66%
    19:00 +26°C° 0.2 mm 2 m/S 757 mmHg 72%
    20:00 +26°C° 0.1 mm 3 m/S 757 mmHg 74%
    21:00 +25°C° 0.1 mm 3 m/S 758 mmHg 77%
    22:00 +25°C° 0.1 mm 3 m/S 758 mmHg 80%
    23:00 +24°C° 0.1 mm 3 m/S 759 mmHg 81%
    Mehr zeigen